Regional Weather Roundup
Issued by NWS

Home | Current Version | Previous Version | Graphics & Text | Print | Product List | Glossary On
Versions: 1 2 3 4 5 6 7 8 9 10 11 12 13 14 15 16 17 18 19 20 21 22 23 24 25 26 27 28 29 30 31 32 33 34 35 36 37 38 39 40 41 42 43 44 45 46 47 48 49 50
000
ASUS43 KDTX 261301
RWRMI
MICHIGAN HOURLY REGIONAL WEATHER ROUNDUP
NATIONAL WEATHER SERVICE DETROIT/PONTIAC MI
800 AM EST FRI DEC 26 2014

NOTE: "FAIR" INDICATES FEW OR NO CLOUDS BELOW 12,000 FEET WITH NO
SIGNIFICANT WEATHER AND/OR OBSTRUCTION TO VISIBILITY.

MIZ047>049-052>055-059>063-066>070-074>076-081>083-261400-
SOUTHEAST LOWER MICHIGAN

CITY           SKY/WX    TMP DP  RH WIND       PRES   REMARKS
ADRIAN         CLEAR     30  28  92 SW7       30.13F WCI  23
ALMA           MOCLDY    34  32  93 S7        30.06R WCI  28
ANN ARBOR      CLEAR     30  28  92 SW6       30.12F WCI  24
BAD AXE        CLOUDY    32  31  96 S5        30.09R WCI  27
CARO           CLOUDY    36  32  87 S8        30.08R WCI  29
DETROIT CITY   CLEAR     35  30  82 S8        30.15R WCI  29
DETROIT        PTCLDY    32  30  92 S10       30.14F WCI  24
FLINT          PTCLDY    37  31  78 S10       30.10R WCI  30
GROSSE ILE     CLEAR     36  30  80 S10       30.14S WCI  28
HILLSDALE      CLEAR     32  32  99 S9        30.09S WCI  24
HOWELL         PTCLDY    32  31  96 S6        30.08F WCI  27

CITY           SKY/WX    TMP DP  RH WIND       PRES   REMARKS
JACKSON        CLEAR     34  30  85 S9        30.08F WCI  27
LAMBERTVILLE   CLEAR     34  32  93 S7        30.15F WCI  28
LANSING        PTCLDY    35  30  82 S10       30.08R WCI  27
LAPEER         FAIR      33  31  93 S9        30.10S WCI  25
MASON          PTCLDY    33  30  89 S6        30.07F WCI  28
MONROE         CLEAR     34  30  86 S9        30.13F WCI  26
PONTIAC        PTCLDY    32  30  92 VRB6      30.10R WCI  26
PORT HOPE        N/A     36  30  79 SW8       30.05S WCI  30
PORT HURON     PTCLDY    32  32 100 S8        30.14R WCI  25
TRI CITIES     MOCLDY    35  31  85 S8        30.07R WCI  29
TROY           CLEAR     34  31  89 S7        30.14F WCI  28
SAGINAW HB     MOCLDY    36  34  93 S12       30.06S WCI  27
$$
MIZ043>046-050>051-056>058-064>065-071>073-077>080-261400-
SOUTHWEST LOWER MICHIGAN

CITY           SKY/WX    TMP DP  RH WIND       PRES   REMARKS
BATTLE CREEK   CLEAR     34  30  85 S13       30.06F WCI  25
BENTON HARBOR  CLEAR     34  31  88 S7        30.04S WCI  28
BIG RAPIDS     CLOUDY    31  31 100 CALM      30.01S FOG
COLDWATER      CLEAR     33  31  93 MISG      30.08S
FREMONT        CLOUDY    33  32  96 S5        30.01S WCI  29
HOLLAND        PTCLDY    36  31  82 S8        30.03F WCI  30
GRAND RAPIDS   PTCLDY    34  30  85 S8        30.04S WCI  27
IONIA          FAIR      35  32  88 SW8       30.04S WCI  29
KALAMAZOO      CLEAR     33  30  88 S9        30.06F WCI  25
MARSHALL       CLEAR     33  31  92 S5        30.06F WCI  28
MOUNT PLEASANT MOCLDY    32  32  99 S3        30.03S
MUSKEGON       MOCLDY    40  35  83 S13       30.02S WCI  32
SOUTH HAVEN    PTCLDY    36  32  85 S6        30.04S WCI  31
$$
MIZ016>042-261400-
NORTHERN LOWER MICHIGAN

CITY           SKY/WX    TMP DP  RH WIND       PRES   REMARKS
ALPENA         CLOUDY    35  32  88 S8        30.02R WCI  29
BEAVER ISLAND  CLOUDY    33  33  99 CALM      29.97S FOG
BELLAIRE       CLOUDY    38  34  85 S5        30.00R WCI  34
CADILLAC       CLOUDY    33  32  95 S7        29.98R WCI  27
CHARLEVOIX     CLOUDY    38  35  90 S7        30.00S WCI  32
FRANKFORT      CLOUDY    35  34  94 CALM      29.98R
GAYLORD        CLOUDY    34  33  96 S6        29.97S WCI  29
GRAYLING       CLOUDY    36  34  94 S6        30.01R WCI  31
HARBOR SPRINGS CLOUDY    38  34  86 S3        29.97S
HOUGHTON LAKE  CLOUDY    33  31  92 S7        30.01R WCI  27
MANISTEE       PTCLDY    30  28  93 E5        29.99R WCI  25
OSCODA         CLOUDY    34  32  92 S7        30.04F WCI  28
PELLSTON       CLOUDY    37  34  89 CALM      29.98R
ROGERS CITY    CLOUDY    36  34  94 S8        30.01R WCI  29
TRAVERSE CITY  MOCLDY    39  34  82 VRB3      29.98R
$$
MIZ007>008-015-261400-
EASTERN UPPER MICHIGAN

CITY           SKY/WX    TMP DP  RH WIND       PRES   REMARKS
KINROSS        CLOUDY    34  34 100 S7        29.96F WCI  28
MACKINAC ISLAN CLOUDY    36  35  99 SE5       29.97S WCI  32
NEWBERRY       FOG       31  31 100 N8        29.96S VSB 3/4 WCI  23
S. S. MARIE    CLOUDY    33  31  92 E3        29.96F
MUNISING         N/A     33  30  88 CALM      29.96S
$$
MIZ004>006-011>014-085-261400-
CENTRAL UPPER MICHIGAN

CITY           SKY/WX    TMP DP  RH WIND       PRES   REMARKS
MANISTIQUE     CLOUDY    32  32 100 CALM      29.97R FOG
ESCANABA       CLOUDY    32  30  93 CALM      29.96R
MENOMINEE      CLOUDY    27  25  93 CALM      29.94S
SAWYER-GWINN   CLOUDY    28  28 100 CALM      29.93S FOG
$$
MIZ001>003-009>011-084-261400-
WESTERN UPPER MICHIGAN

CITY           SKY/WX    TMP DP  RH WIND       PRES   REMARKS
IRON MOUNTAIN  CLOUDY    31  29  92 N5        29.93R WCI  26
HOUGHTON       LGT SNOW  30  28  92 W3        29.94R FOG
COPPER HARBOR    N/A     36  28  73 NE7       29.94S WCI  30
IRONWOOD       CLOUDY    30  30 100 CALM      29.92S
$$

ABBREVIATIONS USED IN REMARKS
   TC - TEMPERATURE IN CELSIUS
  WCI - WIND CHILL INDEX
   HX - HEAT INDEX
  VSB - VISIBILITY



USA.gov is the U.S. government's official web portal to all federal, state and local government web resources and services.